GW1109 Weather Reports


time (UTC)temp
C
wind
direction
speed
KPH
gust
KPH
rain 1hr
cm
rain 24hr
cm
rain mn
cm
humidity
%
barometer
mb
20260904144550 24 348 0.0 11.3 0.00 0.03 0.00 76 1009.8
20260904143058 24 279 3.2 11.3 0.00 0.03 0.00 86 1009.7
20260904141559 25 314 1.6 9.7 0.00 0.03 0.00 100 1009.9
20260904140106 25 302 3.2 11.3 0.00 0.03 0.00 100 1010.1
20260904134550 25 0 0.0 8.0 0.00 0.03 0.00 100 1010.0
20260904133104 24 296 3.2 9.7 0.00 0.03 0.00 100 1010.1
20260904131548 24 346 3.2 6.4 0.00 0.03 0.00 100 1010.0
20260904130104 23 304 3.2 8.0 0.00 0.03 0.00 100 1010.0
20260904124552 23 360 1.6 6.4 0.00 0.08 0.00 100 1010.1
20260904123047 22 308 4.8 8.0 0.00 0.08 0.00 100 1010.2
20260904121600 23 301 3.2 11.3 0.00 0.08 0.00 100 1010.3
20260904120107 22 310 4.8 8.0 0.00 0.08 0.00 100 1010.2
20260904114549 22 320 1.6 8.0 0.00 0.20 0.00 100 1010.0
20260904113048 22 360 3.2 6.4 0.00 0.20 0.00 100 1009.9
20260904111549 22 317 1.6 4.8 0.00 0.20 0.00 100 1009.9
20260904110058 22 322 1.6 6.4 0.00 0.20 0.00 100 1009.9
20260904104606 21 320 1.6 3.2 0.00 0.23 0.00 100 1009.8
20260904103047 21 269 0.0 3.2 0.00 0.23 0.00 100 1009.6
20260904101547 21 0 0.0 3.2 0.00 0.23 0.00 100 1009.6
20260904100057 21 269 0.0 3.2 0.00 0.23 0.00 100 1009.6
20260904094552 21 269 0.0 4.8 0.00 0.28 0.00 100 1009.7
20260904093049 21 294 1.6 3.2 0.00 0.28 0.00 100 1009.7
20260904091555 21 255 0.0 4.8 0.00 0.28 0.00 100 1009.6
20260904090053 21 308 0.0 3.2 0.00 0.28 0.00 100 1009.8
20260904084547 21 296 3.2 9.7 0.00 0.58 0.00 100 1009.9
20260904083057 21 217 3.2 9.7 0.00 0.58 0.00 100 1009.8
20260904081555 21 0 1.6 11.3 0.00 0.58 0.00 100 1009.5
20260904080047 21 224 1.6 8.0 0.00 0.58 0.00 100 1009.7
20260904074558 21 271 1.6 6.4 0.00 0.58 0.00 100 1009.8
20260904073055 21 216 1.6 6.4 0.00 0.58 0.00 100 1009.8
20260904071548 21 0 1.6 8.0 0.00 0.58 0.00 100 1010.1
20260904070101 21 0 1.6 6.4 0.00 0.58 0.00 100 1010.1
20260904064556 21 275 1.6 9.7 0.00 0.58 0.00 100 1010.2
20260904063052 21 207 1.6 6.4 0.00 0.58 0.00 100 1010.3
20260904061552 21 285 1.6 12.9 0.00 0.58 0.00 100 1010.6
20260904060057 21 251 3.2 11.3 0.00 0.58 0.00 100 1010.9
20260904054603 21 255 1.6 4.8 0.00 0.58 0.00 100 1011.0
20260904053103 21 209 3.2 8.0 0.00 0.58 0.00 100 1011.0
20260904051554 21 217 1.6 6.4 0.00 0.58 0.00 100 1011.2
20260904050055 21 0 1.6 6.4 0.00 0.58 0.00 100 1011.3
20260904044557 21 169 0.0 6.4 0.00 0.58 0.00 100 1011.4
20260904043102 20 0 0.0 0.0 0.00 0.58 0.00 100 1011.5
20260904041554 20 0 0.0 4.8 0.00 0.58 0.00 100 1011.6
20260904040053 20 0 0.0 0.0 0.00 0.58 0.00 100 1011.8
20260904034547 20 0 0.0 0.0 0.00 0.58 0.58 100 1012.0
20260904033056 20 0 0.0 0.0 0.00 0.58 0.58 100 1012.1
20260904031554 20 0 0.0 0.0 0.00 0.58 0.58 100 1012.1
20260904030108 20 0 0.0 0.0 0.00 0.58 0.58 100 1012.1
20260904024601 20 0 0.0 0.0 0.00 0.58 0.58 100 1012.0
20260904023054 20 0 0.0 0.0 0.00 0.58 0.58 100 1012.2
20260904021549 20 0 0.0 0.0 0.00 0.58 0.58 100 1012.4
20260904020058 20 0 0.0 0.0 0.00 0.58 0.58 100 1012.5
20260904014613 20 0 0.0 0.0 0.00 0.58 0.58 100 1012.6
20260904013049 20 0 0.0 0.0 0.00 0.58 0.58 100 1012.7
20260904011602 20 0 0.0 0.0 0.00 0.58 0.58 100 1012.7
20260904010058 20 0 0.0 0.0 0.00 0.58 0.58 100 1012.7
20260904004554 20 0 0.0 0.0 0.00 0.58 0.58 100 1012.6
20260904003104 20 0 0.0 3.2 0.00 0.58 0.58 100 1012.4
20260904001559 20 0 0.0 3.2 0.00 0.58 0.58 100 1012.4
20260904000059 20 0 0.0 1.6 0.00 0.58 0.58 100 1012.1
20260903234552 20 107 0.0 3.2 0.00 0.58 0.58 100 1012.0
20260903233051 20 0 0.0 4.8 0.00 0.58 0.58 100 1012.0
20260903231606 20 0 0.0 0.0 0.00 0.58 0.58 100 1012.1
20260903224555 20 0 0.0 0.0 0.00 0.58 0.58 100 1012.2
20260903223051 20 0 0.0 0.0 0.00 0.58 0.58 100 1012.4
20260903221548 20 0 0.0 0.0 0.00 0.58 0.58 100 1012.4
20260903220120 20 0 0.0 0.0 0.00 0.58 0.58 100 1012.4
20260903214556 20 0 0.0 0.0 0.00 0.58 0.58 100 1012.5
20260903213051 20 0 0.0 0.0 0.00 0.58 0.58 100 1012.8
20260903211604 20 0 0.0 0.0 0.00 0.58 0.58 100 1012.5
20260903210112 20 0 0.0 0.0 0.00 0.58 0.58 100 1012.5
20260903204555 20 0 0.0 0.0 0.00 0.58 0.58 100 1012.6
20260903203052 20 0 0.0 0.0 0.00 0.58 0.58 100 1012.9
20260903201552 20 0 0.0 0.0 0.00 0.58 0.58 100 1012.8
20260903200100 20 0 0.0 0.0 0.00 0.58 0.58 100 1012.9
20260903194555 20 0 0.0 0.0 0.00 0.58 0.58 100 1013.0
20260903193049 20 0 0.0 3.2 0.00 0.58 0.58 100 1013.0
20260903191601 20 0 0.0 4.8 0.00 0.58 0.58 100 1013.0
20260903190058 20 0 0.0 3.2 0.00 0.58 0.58 100 1013.3
20260903184556 20 0 0.0 3.2 0.00 0.58 0.58 100 1013.4
20260903183051 20 0 0.0 1.6 0.00 0.58 0.58 100 1013.5
20260903181559 20 0 0.0 3.2 0.00 0.58 0.58 100 1013.7
20260903180100 20 117 0.0 4.8 0.00 0.58 0.58 100 1013.9
20260903174554 20 0 0.0 1.6 0.00 0.58 0.58 100 1014.1
20260903173049 20 0 1.6 6.4 0.00 0.58 0.58 100 1013.7
20260903171609 20 0 0.0 4.8 0.00 0.58 0.58 100 1013.7
20260903170100 20 138 0.0 6.4 0.00 0.58 0.58 100 1013.7
20260903164604 20 111 1.6 4.8 0.00 0.58 0.58 100 1014.1
20260903163049 20 111 1.6 4.8 0.00 0.58 0.58 100 1014.0
20260903161601 20 77 1.6 6.4 0.00 0.58 0.58 100 1014.3
20260903160059 20 85 1.6 6.4 0.03 0.58 0.58 100 1014.4
20260903154552 20 55 0.0 4.8 0.03 0.58 0.58 100 1014.7
20260903153049 20 119 1.6 4.8 0.03 0.58 0.58 100 1014.9
20260903151549 20 0 1.6 6.4 0.03 0.58 0.58 100 1014.9
20260903150101 20 160 0.0 6.4 0.00 0.56 0.56 100 1015.1